Regional Weather Roundup
Issued by NWS

Home | Current Version | Previous Version | Graphics & Text | Print | Product List | Glossary On
Versions: 1 2 3 4 5 6 7 8 9 10 11 12 13 14 15 16 17 18 19 20 21 22 23 24 25 26 27 28 29 30 31 32 33 34 35 36 37 38 39 40 41 42 43 44 45 46 47 48 49 50
000
ASUS43 KBIS 022010
RWRND

NORTH DAKOTA REGIONAL WEATHER ROUNDUP
NATIONAL WEATHER SERVICE BISMARCK ND
300 PM CDT MON MAY 02 2016

NOTE: "FAIR" INDICATES FEW OR NO CLOUDS BELOW 12,000 FEET WITH NO
SIGNIFICANT WEATHER AND/OR OBSTRUCTIONS TO VISIBILITY.


NDZ001>003-009>011-017-022100-
NORTHWEST NORTH DAKOTA

CITY           SKY/WX    TMP DP  RH WIND       PRES   REMARKS
WILLISTON      SUNNY     74  32  21 NE17G31   30.00F
MINOT          MOSUNNY   73  33  23 NE10G22   29.99S
MINOT AFB      MOSUNNY   67  38  34 E6        29.98S
$$

NDZ018>021-031>035-040>046-022100-
SOUTHWEST NORTH DAKOTA

CITY           SKY/WX    TMP DP  RH WIND       PRES   REMARKS
BISMARCK       MOSUNNY   63  44  50 NE5       29.99S
DICKINSON      MOSUNNY   68  32  26 N21G28    29.96S
GARRISON         N/A     68  35  29 NE9G20    29.98S
HETTINGER ARPT CLOUDY    68  34  28 NW22G31   29.98F
$$

NDZ004>008-012>016-024-026-027-054-022100-
NORTHEAST NORTH DAKOTA

CITY           SKY/WX    TMP DP  RH WIND       PRES   REMARKS
GRAND FORKS    MOSUNNY   71  30  21 E8        29.97F
GRND FRKS AFB  SUNNY     70  27  20 S5        29.98F
DEVILS LAKE    SUNNY     64  35  34 VRB7      30.01S
$$

NDZ022-023-025-028>030-036>039-047>053-022100-
SOUTHEAST NORTH DAKOTA

CITY           SKY/WX    TMP DP  RH WIND       PRES   REMARKS
FARGO          SUNNY     68  26  20 E3        29.99S
JAMESTOWN      CLOUDY    58  40  51 S12       30.02R
$$





USA.gov is the U.S. government's official web portal to all federal, state and local government web resources and services.